Terminal Aerodrome Forecast
Issued by NWS Midland/Odessa, TX

Home | Current Version | Previous Version | Text Only | Print | Product List | Glossary On
Versions: 1 2 3 4 5 6 7 8 9 10 11 12 13 14 15 16 17 18 19 20 21 22 23 24
000
FTUS44 KMAF 231306 AAB
TAFMAF
TAF AMD
KMAF 231306Z 2313/2412 02015G25KT P6SM BKN035
      TEMPO 2313/2315 BKN025
     FM232000 01014G22KT P6SM OVC050
     FM240100 10008KT P6SM FEW250
     FM240600 20007KT P6SM SKC=

USA.gov is the U.S. government's official web portal to all federal, state and local government web resources and services.